When you browse on this site, cookies collect data to enhance your experience and personalize the content and advertising you see.
Visit our Privacy Policy to learn more. By continuing to use the site, you agree to this use of cookies and data.
  • En España
  • Lista de países
  • Para 7 días
  • Temperatura del agua
  • El tiempo en el mapa
  • Informadores
  • user-avatar
    Iniciar sesión

    Tiempo cada hora Luanda

    Hoy, 23 Agosto, Viernes

    Tiempo Temperatura Precipitaciones Viento Presión Humedad
    00:00 +22°C° 0 mm 3 mps 756 mmHg 86%
    01:00 +21°C° 0 mm 2 mps 757 mmHg 90%
    02:00 +21°C° 0 mm 3 mps 756 mmHg 88%
    03:00 +21°C° 0 mm 3 mps 756 mmHg 85%
    04:00 +21°C° 0 mm 3 mps 756 mmHg 83%
    05:00 +22°C° 0 mm 3 mps 756 mmHg 81%
    06:00 +22°C° 0 mm 3 mps 757 mmHg 79%
    07:00 +22°C° 0 mm 3 mps 758 mmHg 76%
    08:00 +25°C° 0 mm 2 mps 757 mmHg 69%
    09:00 +26°C° 0 mm 2 mps 757 mmHg 62%
    10:00 +28°C° 0 mm 1 mps 757 mmHg 55%
    11:00 +29°C° 0 mm 2 mps 756 mmHg 50%
    12:00 +32°C° 0 mm 4 mps 755 mmHg 46%
    13:00 +33°C° 0 mm 5 mps 755 mmHg 42%
    14:00 +32°C° 0 mm 6 mps 754 mmHg 47%
    15:00 +29°C° 0 mm 6 mps 753 mmHg 52%
    16:00 +28°C° 0 mm 7 mps 752 mmHg 57%
    17:00 +26°C° 0 mm 6 mps 753 mmHg 65%
    18:00 +24°C° 0 mm 6 mps 753 mmHg 74%
    19:00 +22°C° 0 mm 6 mps 754 mmHg 82%
    20:00 +22°C° 0 mm 5 mps 754 mmHg 83%
    21:00 +22°C° 0 mm 3 mps 755 mmHg 84%
    22:00 +23°C° 0 mm 2 mps 756 mmHg 84%
    23:00 +23°C° 0 mm 2 mps 756 mmHg 82%

    Mañana, 24 Agosto, Sábado

    Tiempo Temperatura Precipitaciones Viento Presión Humedad
    00:00 +23°C° 0 mm 2 mps 756 mmHg 79%
    01:00 +23°C° 0 mm 2 mps 757 mmHg 77%
    02:00 +23°C° 0 mm 2 mps 756 mmHg 76%
    03:00 +23°C° 0 mm 1 mps 756 mmHg 74%
    04:00 +21°C° 0 mm 0 mps 756 mmHg 73%
    05:00 +21°C° 0 mm 0 mps 756 mmHg 72%
    06:00 +22°C° 0 mm 0 mps 757 mmHg 71%
    07:00 +22°C° 0 mm 0 mps 757 mmHg 70%
    08:00 +23°C° 0 mm 0 mps 757 mmHg 64%
    09:00 +25°C° 0 mm 0 mps 757 mmHg 58%
    10:00 +26°C° 0 mm 0 mps 757 mmHg 52%
    11:00 +29°C° 0 mm 2 mps 756 mmHg 49%
    12:00 +30°C° 0 mm 3 mps 756 mmHg 47%
    13:00 +32°C° 0 mm 4 mps 755 mmHg 44%
    14:00 +30°C° 0 mm 5 mps 754 mmHg 49%
    15:00 +29°C° 0 mm 5 mps 753 mmHg 54%
    16:00 +27°C° 0 mm 6 mps 753 mmHg 59%
    17:00 +26°C° 0 mm 6 mps 753 mmHg 67%
    18:00 +24°C° 0 mm 6 mps 754 mmHg 75%
    19:00 +22°C° 0 mm 5 mps 754 mmHg 82%
    20:00 +22°C° 0 mm 4 mps 755 mmHg 84%
    21:00 +22°C° 0 mm 3 mps 755 mmHg 85%
    22:00 +23°C° 0 mm 1 mps 756 mmHg 86%
    23:00 +23°C° 0 mm 1 mps 756 mmHg 82%

    Pasado mañana, 25 Agosto, Domingo

    Tiempo Temperatura Precipitaciones Viento Presión Humedad
    00:00 +21°C° 0 mm 0 mps 756 mmHg 79%
    01:00 +22°C° 0 mm 0 mps 756 mmHg 75%
    02:00 +22°C° 0 mm 0 mps 756 mmHg 75%
    03:00 +24°C° 0 mm 1 mps 756 mmHg 75%
    04:00 +23°C° 0 mm 1 mps 755 mmHg 75%
    05:00 +24°C° 0 mm 1 mps 756 mmHg 73%
    06:00 +24°C° 0 mm 1 mps 756 mmHg 72%
    07:00 +24°C° 0 mm 1 mps 756 mmHg 71%
    08:00 +25°C° 0 mm 1 mps 756 mmHg 67%
    09:00 +26°C° 0 mm 2 mps 756 mmHg 63%
    10:00 +27°C° 0 mm 2 mps 757 mmHg 58%
    11:00 +28°C° 0 mm 3 mps 756 mmHg 55%
    12:00 +29°C° 0 mm 4 mps 755 mmHg 51%
    13:00 +30°C° 0 mm 5 mps 754 mmHg 47%
    14:00 +29°C° 0 mm 5 mps 754 mmHg 51%
    15:00 +28°C° 0 mm 6 mps 753 mmHg 56%
    16:00 +27°C° 0 mm 6 mps 753 mmHg 60%
    17:00 +24°C° 0 mm 6 mps 753 mmHg 67%
    18:00 +23°C° 0 mm 6 mps 754 mmHg 74%
    19:00 +22°C° 0 mm 5 mps 754 mmHg 81%
    20:00 +21°C° 0 mm 5 mps 755 mmHg 83%
    21:00 +21°C° 0 mm 4 mps 755 mmHg 85%
    22:00 +21°C° 0 mm 3 mps 756 mmHg 87%
    23:00 +21°C° 0 mm 2 mps 756 mmHg 86%

    26 Agosto, Lunes

    Tiempo Temperatura Precipitaciones Viento Presión Humedad
    00:00 +22°C° 0 mm 1 mps 757 mmHg 85%
    01:00 +22°C° 0 mm 1 mps 757 mmHg 84%
    02:00 +23°C° 0.1 mm 1 mps 757 mmHg 82%
    03:00 +23°C° 0.1 mm 1 mps 757 mmHg 80%
    04:00 +23°C° 0.1 mm 1 mps 757 mmHg 78%
    05:00 +23°C° 0 mm 1 mps 757 mmHg 76%
    06:00 +23°C° 0 mm 1 mps 757 mmHg 75%
    07:00 +23°C° 0 mm 1 mps 758 mmHg 74%
    08:00 +25°C° 0 mm 1 mps 758 mmHg 68%
    09:00 +26°C° 0 mm 1 mps 758 mmHg 62%
    10:00 +27°C° 0 mm 2 mps 758 mmHg 56%
    11:00 +28°C° 0 mm 3 mps 757 mmHg 53%
    12:00 +29°C° 0 mm 3 mps 757 mmHg 50%
    13:00 +30°C° 0 mm 4 mps 756 mmHg 47%
    14:00 +29°C° 0 mm 4 mps 755 mmHg 50%
    15:00 +28°C° 0 mm 5 mps 755 mmHg 53%
    16:00 +27°C° 0 mm 5 mps 754 mmHg 56%
    17:00 +26°C° 0 mm 4 mps 755 mmHg 63%
    18:00 +23°C° 0 mm 4 mps 755 mmHg 70%
    19:00 +22°C° 0 mm 4 mps 756 mmHg 76%
    20:00 +22°C° 0 mm 3 mps 756 mmHg 79%
    21:00 +21°C° 0 mm 3 mps 756 mmHg 82%
    22:00 +21°C° 0 mm 2 mps 757 mmHg 85%
    23:00 +20°C° 0 mm 2 mps 757 mmHg 87%

    27 Agosto, Martes

    Tiempo Temperatura Precipitaciones Viento Presión Humedad
    00:00 +20°C° 0 mm 2 mps 757 mmHg 88%
    01:00 +21°C° 0 mm 1 mps 757 mmHg 90%
    02:00 +19°C° 0 mm 2 mps 757 mmHg 91%
    03:00 +19°C° 0 mm 2 mps 757 mmHg 92%
    04:00 +19°C° 0 mm 2 mps 757 mmHg 93%
    05:00 +19°C° 0 mm 2 mps 757 mmHg 91%
    06:00 +19°C° 0 mm 2 mps 757 mmHg 90%
    07:00 +20°C° 0 mm 2 mps 757 mmHg 88%
    08:00 +23°C° 0 mm 2 mps 757 mmHg 75%
    09:00 +26°C° 0 mm 1 mps 757 mmHg 63%
    10:00 +28°C° 0 mm 1 mps 757 mmHg 50%
    11:00 +30°C° 0 mm 2 mps 757 mmHg 46%
    12:00 +31°C° 0 mm 3 mps 756 mmHg 43%
    13:00 +33°C° 0 mm 4 mps 755 mmHg 40%
    14:00 +30°C° 0 mm 5 mps 754 mmHg 45%
    15:00 +29°C° 0 mm 6 mps 754 mmHg 50%
    16:00 +28°C° 0 mm 6 mps 754 mmHg 55%
    17:00 +26°C° 0 mm 6 mps 754 mmHg 63%
    18:00 +25°C° 0 mm 5 mps 755 mmHg 70%
    19:00 +22°C° 0 mm 4 mps 755 mmHg 77%
    20:00 +22°C° 0 mm 4 mps 756 mmHg 80%
    21:00 +21°C° 0 mm 4 mps 756 mmHg 82%
    22:00 +21°C° 0 mm 4 mps 757 mmHg 85%
    23:00 +20°C° 0 mm 3 mps 757 mmHg 87%

    28 Agosto, Miércoles

    Tiempo Temperatura Precipitaciones Viento Presión Humedad
    00:00 +20°C° 0 mm 3 mps 757 mmHg 89%
    01:00 +20°C° 0 mm 2 mps 757 mmHg 91%
    02:00 +20°C° 0 mm 2 mps 756 mmHg 87%
    03:00 +21°C° 0 mm 2 mps 756 mmHg 84%
    04:00 +23°C° 0 mm 2 mps 756 mmHg 80%
    05:00 +23°C° 0 mm 2 mps 756 mmHg 79%
    06:00 +22°C° 0 mm 1 mps 756 mmHg 78%
    07:00 +22°C° 0 mm 1 mps 756 mmHg 78%
    08:00 +25°C° 0 mm 1 mps 757 mmHg 67%
    09:00 +27°C° 0 mm 1 mps 757 mmHg 56%
    10:00 +29°C° 0 mm 1 mps 757 mmHg 46%
    11:00 +29°C° 0 mm 2 mps 756 mmHg 46%
    12:00 +30°C° 0 mm 4 mps 755 mmHg 47%
    13:00 +30°C° 0 mm 5 mps 754 mmHg 47%
    14:00 +29°C° 0 mm 6 mps 754 mmHg 51%
    15:00 +28°C° 0 mm 6 mps 753 mmHg 54%
    16:00 +27°C° 0 mm 6 mps 753 mmHg 57%
    17:00 +24°C° 0 mm 6 mps 753 mmHg 63%
    18:00 +23°C° 0 mm 5 mps 754 mmHg 69%
    19:00 +22°C° 0 mm 5 mps 754 mmHg 75%
    20:00 +21°C° 0 mm 4 mps 755 mmHg 78%
    21:00 +21°C° 0 mm 4 mps 755 mmHg 81%
    22:00 +21°C° 0 mm 3 mps 756 mmHg 83%
    23:00 +21°C° 0 mm 3 mps 756 mmHg 83%
    Mostrar más